Retour au catalogue

STARLINK-34738

ActifCommunicationsSSO
NORAD 64951·PAYLOAD·🇺🇸 United States

Lancé Jul 26, 2025 depuis Vandenberg Space Force Base

Loading…

Prochains Passages (prochaines 24 heures)

TLE

FraisSource: CelesTrak SupGP

Époque: Sep 15, 2026, 02:31 UTC

1 64951C 25158V   26258.10534722 -.00046218  00000+0 -14346-2 0  2583
2 64951  97.2847 116.5410 0001404  87.1375 247.9993 15.33464255    14

Suivez STARLINK-34738 en temps réel avec AllMySat

Download on the App Store